Regional Weather Roundup
Issued by NWS

Home | Current Version | Previous Version | Graphics & Text | Print | Product List | Glossary On
Versions: 1 2 3 4 5 6 7 8 9 10 11 12 13 14 15 16 17 18 19 20 21 22 23 24 25 26 27 28 29 30 31 32 33 34 35 36 37 38 39 40 41 42 43 44 45 46 47 48 49 50
000
ASUS43 KIND 272259
RWRIN

WEATHER ROUNDUP FOR INDIANA
NATIONAL WEATHER SERVICE INDIANAPOLIS IN
700 PM EDT MON JUL 27 2015

NOTE: "FAIR" INDICATES FEW OR NO CLOUDS BELOW 12,000 FEET WITH NO
SIGNIFICANT WEATHER AND/OR OBSTRUCTIONS TO VISIBILITY.

* - STATION DOES NOT REPORT WEATHER SUCH AS PRECIPITATION OR FOG.

+ - STATION NOT QUALITY CONTROLLED BY THE NATIONAL WEATHER SERVICE.
    USE DATA WITH CAUTION...ESPECIALLY DEWPOINT AND RELATIVE
    HUMIDITY OBSERVATIONS.

INZ001>003-010>013-019-020-280000-
NORTHWEST INDIANA

CITY           SKY/WX    TMP DP  RH WIND       PRES   REMARKS
GARY /AIRPORT/ PTSUNNY   81  68  65 NE13      29.98S

$$

LMZ046-743>745-280000-
SOUTHERN LAKE MICHIGAN

STATION/POSITION TIME  TEMP    WIND        PRES    WAVE
                       AIR SEA DIR/SP/G            HT
                 (UTC) (F)     (DEG/KT/KT) (MB)    (FT)
BURNS HARBOR     2200   77      80/  9/ 11 1015.9F
MICHIGAN CITY    2200   75      30/ 10/ 11   N/A
5NW MICH CITY    2200   76 76   40/ 10/ 12   N/A     1

$$

INZ004-005-014>016-021>024-280000-
NORTH CENTRAL INDIANA

CITY           SKY/WX    TMP DP  RH WIND       PRES   REMARKS
ELKHART        SUNNY     86  59  39 E8        29.99F
GOSHEN         SUNNY     84  65  52 E9        29.99F
SOUTH BEND     SUNNY     86  61  42 NE8       29.99F

$$

INZ006>009-017-018-025>027-280000-
NORTHEAST INDIANA

CITY           SKY/WX    TMP DP  RH WIND       PRES   REMARKS
ANGOLA *+      SUNNY     84  79  84 E5        30.00F HX  96
FORT WAYNE     MOSUNNY   83  60  45 E9        29.99F

$$

INZ028-029-035-036-043>045-051>053-280000-
WEST CENTRAL INDIANA

CITY           SKY/WX    TMP DP  RH WIND       PRES   REMARKS
CRAWFORDSVL +  MOSUNNY   80  70  72 CALM        N/A
GREENCASTLE +  MOSUNNY   84  66  54 CALM      29.94S
LAFAYETTE      MOSUNNY   82  71  69 E10       29.94S
TERRE HAUTE    CLOUDY    87  74  64 E7        29.92S HX  95

$$

INZ030>032-037>040-046>048-054>057-064-065-280000-
CENTRAL INDIANA

CITY           SKY/WX    TMP DP  RH WIND       PRES   REMARKS
COLUMBUS       MOSUNNY   86  70  58 CALM      29.93F
INDIANAPOLIS   PTSUNNY   85  70  60 N7        29.93F
-EAGLE CREEK   MOSUNNY   84  72  67 NE9       29.93F
KOKOMO *+      MOSUNNY   82  66  57 E8        29.96S
MT COMFORT *+  MOSUNNY   81  81 100 E8        29.96S
SHELBYVILLE    SUNNY     87  74  64 E3        29.93F HX  95

$$

INZ033-034-041-042-049-050-058-059-280000-
EAST CENTRAL INDIANA

CITY           SKY/WX    TMP DP  RH WIND       PRES   REMARKS
MUNCIE         PTSUNNY   82  71  69 E8        29.97F

$$

INZ060-061-067>069-081>083-085>088-280000-
SOUTHWEST INDIANA

CITY           SKY/WX    TMP DP  RH WIND       PRES   REMARKS
EVANSVILLE     MOSUNNY   89  75  63 SE6       29.91F HX  99
HUNTINGBURG *+ MOSUNNY   88  75  66 S6        29.92S HX  97

$$

INZ062-063-066-070>080-084-089>092-280000-
SOUTH CENTRAL AND SOUTHEAST INDIANA

CITY           SKY/WX    TMP DP  RH WIND       PRES   REMARKS
BLOOMINGTON    CLOUDY    85  74  69 CALM      29.94R
MADISON *+     SUNNY     86  72  62 CALM      29.95F
SEYMOUR +      MOSUNNY   90  72  55 CALM      29.92F HX  96

$$



USA.gov is the U.S. government's official web portal to all federal, state and local government web resources and services.